Solden, Austria 16 day weather forecast

Slopes altitude range 1380 m - 3250m

Number of lifts: 33 Pistes: 148km

In some cases the lift and piste totals shown are for the ski domain (e.g. Three Valleys) rather than individual resort (e.g. Courchevel)

Overview

The 16 day weather forecast is fully updated 4 times every day.

    • Sun 17 FEB 2019
    • Sun 17
    • -8C 1C
    • Mon 18 FEB 2019
    • Mon 18
    • -8C 0C
    • Tue 19 FEB 2019
    • Tue 19
    • -10C -3C
    • Wed 20 FEB 2019
    • Wed 20
    • -11C -3C
    • Thu 21 FEB 2019
    • Thu 21
    • -9C -2C
    • Fri 22 FEB 2019
    • Fri 22
    • -7C -4C
    • Sat 23 FEB 2019
    • Sat 23
    • -11C -2C
    • Sun 24 FEB 2019
    • Sun 24
    • -7C 1C
    • Mon 25 FEB 2019
    • Mon 25
    • -5C 1C
    • Tue 26 FEB 2019
    • Tue 26
    • -8C 0C
    • Wed 27 FEB 2019
    • Wed 27
    • -3C 5C
    • Thu 28 FEB 2019
    • Thu 28
    • -4C 4C
    • Fri 01 MAR 2019
    • Fri 01
    • -5C 5C
    • Sat 02 MAR 2019
    • Sat 02
    • -4C 3C
    • Sun 03 MAR 2019
    • Sun 03
    • -4C 5C
    • Mon 04 MAR 2019
    • Mon 04
    • -2C 4C

Date:

Time Type 0°C level Temp Chill Snow Cloud Speed Gust Dir Press
12:00 3020m 1°C 1_4 0cm 0% 4mph 4mph 1026mB
15:00 2876m 1°C 1_5 0cm 0% 5mph 5mph 1025mB
18:00 1561m 1°C 1_7 0cm 0% 7mph 8mph 1027mB
21:00 1456m -7°C -7_8 0cm 18% 8mph 9mph 1028mB
0:00 1403m -7°C -7_8 0cm 11% 8mph 9mph 1028mB
3:00 1289m -8°C -8_8 0cm 20% 8mph 9mph 1027mB
6:00 1231m -8°C -8_8 0cm 51% 8mph 9mph 1027mB
9:00 2205m -8°C -8_7 0cm 34% 7mph 8mph 1024mB
12:00 2477m 0°C 0_8 0cm 17% 8mph 9mph 1022mB
15:00 2376m 0°C 0_7 0cm 0% 7mph 9mph 1021mB
18:00 1468m 0°C 0_8 0cm 14% 8mph 9mph 1023mB
21:00 1374m -7°C -7_7 0cm 97% 7mph 8mph 1024mB
0:00 1318m -8°C -8_6 0cm 58% 6mph 7mph 1025mB
3:00 1178m -8°C -8_4 0cm 21% 4mph 5mph 1024mB
6:00 1003m -10°C -10_3 0cm 41% 3mph 4mph 1024mB
9:00 1854m -10°C -10_4 0cm 54% 4mph 4mph 1024mB
12:00 2035m -3°C -3_4 0cm 71% 4mph 4mph 1022mB
15:00 1941m -3°C -3_4 0cm 99% 4mph 5mph 1022mB
18:00 1404m -3°C -3_3 0cm 99% 3mph 4mph 1024mB
21:00 1028m -9°C -9_3 0cm 66% 3mph 4mph 1026mB
0:00 921m -10°C -10_3 0cm 33% 3mph 4mph 1026mB
3:00 869m -10°C -10_3 0cm 50% 3mph 5mph 1026mB
6:00 824m -11°C -11_3 0cm 72% 3mph 5mph 1027mB
9:00 1734m -11°C -11_3 0cm 98% 3mph 3mph 1026mB
12:00 1990m -3°C -3_3 0cm 98% 3mph 3mph 1025mB
15:00 2008m -3°C -3_4 0cm 98% 4mph 4mph 1025mB
18:00 1409m -3°C -3_3 0cm 98% 3mph 4mph 1028mB
21:00 1402m -7°C -7_3 0cm 98% 3mph 4mph 1029mB
0:00 1249m -8°C -8_2 0cm 93% 2mph 3mph 1030mB
3:00 1144m -9°C -9_3 0cm 76% 3mph 4mph 1030mB
6:00 1119m -9°C -9_3 0cm 57% 3mph 4mph 1030mB
9:00 1956m -9°C -9_3 0cm 89% 3mph 3mph 1030mB
12:00 2172m -2°C -2_3 0cm 93% 3mph 2mph 1028mB
15:00 2167m -2°C -2_4 0cm 97% 4mph 4mph 1028mB
18:00 1443m -2°C -2_3 0cm 92% 3mph 4mph 1030mB
21:00 1678m -6°C -6_5 0cm 99% 5mph 5mph 1031mB
0:00 1392m -7°C -7_6 0cm 99% 6mph 7mph 1031mB
3:00 1125m -9°C -9_7 0cm 19% 7mph 8mph 1031mB
6:00 1335m -9°C -9_7 1cm 55% 7mph 8mph 1032mB
9:00 1713m -7°C -7_11 1cm 100% 11mph 13mph 1032mB
12:00 1873m -4°C -4_11 1cm 96% 11mph 12mph 1030mB
15:00 1711m -4°C -4_11 1cm 99% 11mph 12mph 1030mB
18:00 1336m -4°C -4_8 1cm 99% 8mph 10mph 1034mB
21:00 1247m -8°C -8_4 1cm 94% 4mph 5mph 1036mB
0:00 939m -10°C -10_2 1cm 86% 2mph 4mph 1036mB
3:00 851m -11°C -11_2 0cm 14% 2mph 4mph 1035mB
6:00 855m -11°C -11_2 0cm 7% 2mph 4mph 1036mB
9:00 1796m -11°C -11_4 0cm 0% 4mph 4mph 1035mB
12:00 2127m -2°C -2_6 0cm 20% 6mph 6mph 1034mB
15:00 2000m -2°C -2_6 0cm 9% 6mph 7mph 1034mB
18:00 1205m -2°C -2_1 0cm 7% 1mph 3mph 1038mB
21:00 1270m -9°C -9_3 0cm 0% 3mph 4mph 1039mB
0:00 1337m -9°C -9_6 0cm 0% 6mph 6mph 1039mB
3:00 1354m -7°C -7_5 0cm 0% 5mph 6mph 1039mB
6:00 1345m -8°C -8_3 0cm 0% 3mph 5mph 1039mB
9:00 2348m -7°C -7_2 0cm 63% 2mph 2mph 1039mB
12:00 2608m 1°C 1_4 0cm 49% 4mph 5mph 1037mB
15:00 2509m 1°C 1_5 0cm 7% 5mph 7mph 1036mB
18:00 1779m 1°C 1_4 0cm 3% 4mph 5mph 1038mB
21:00 1805m -5°C -5_4 0cm 0% 4mph 5mph 1039mB
0:00 1840m -5°C -5_4 0cm 0% 4mph 5mph 1038mB
3:00 1778m -5°C -5_4 0cm 0% 4mph 6mph 1037mB
6:00 1705m -5°C -5_4 0cm 0% 4mph 5mph 1037mB
9:00 2489m -5°C -5_5 0cm 0% 5mph 7mph 1035mB
12:00 2636m 1°C 1_7 0cm 0% 7mph 8mph 1033mB
15:00 2569m 1°C 1_7 0cm 0% 7mph 8mph 1031mB
18:00 1885m 1°C 1_6 0cm 9% 6mph 8mph 1033mB
21:00 1794m -4°C -4_7 0cm 43% 7mph 8mph 1033mB
0:00 1690m -5°C -5_7 0cm 22% 7mph 8mph 1033mB
3:00 1501m -6°C -6_6 0cm 0% 6mph 7mph 1032mB
6:00 1333m -7°C -7_5 0cm 0% 5mph 6mph 1032mB
9:00 2084m -8°C -8_6 0cm 0% 6mph 7mph 1031mB
12:00 2420m 0°C 0_7 0cm 13% 7mph 8mph 1029mB
15:00 2312m 0°C 0_7 0cm 13% 7mph 9mph 1028mB
18:00 1638m 0°C 0_3 0cm 6% 3mph 4mph 1031mB
21:00 1595m -6°C -6_3 0cm 10% 3mph 5mph 1032mB
0:00 1537m -6°C -6_1 0cm 24% 1mph 2mph 1033mB
3:00 1524m -6°C -6_1 0cm 0% 1mph 3mph 1033mB
6:00 1555m -6°C -6_3 0cm 0% 3mph 5mph 1033mB
Afternoon 0mm 0 2064m 5°C 5_3 0cm 0% 3mph 4mph 1033mB
Morning 0mm 0 1496m -4°C -4_5 0cm 53% 5mph 6mph 1034mB
Afternoon 0mm 0 1868m 4°C 4_6 0cm 47% 6mph 7mph 1032mB
Morning 0mm 0 1403m -5°C -5_2 0cm 0% 2mph 3mph 1032mB
Afternoon 0mm 0 1904m 5°C 5_2 0cm 7% 2mph 2mph 1029mB
Morning 0mm 0 1546m -4°C -4_5 0cm 0% 5mph 6mph 1033mB
Afternoon 0mm 0 1808m 3°C 3_7 0cm 2% 7mph 9mph 1036mB
Morning 0.015625mm 0 1607m -4°C -4_4 0cm 42% 4mph 4mph 1038mB
Afternoon 0mm 0 1987m 5°C 5_4 0cm 4% 4mph 5mph 1035mB
Morning 0mm 0 1782m -2°C -2_4 0cm 82% 4mph 5mph 1033mB
Afternoon 0mm 0 1877m 4°C 4_1 0cm 74% 1mph 2mph 1027mB
Morning 0mm 0 1612m -4°C -4_4 0cm 0% 4mph 5mph 1025mB

16 day outlook at a glance

Forecast issued: 2/17/2019 2:42:19 PM

Chat

Your comments and questions. In a resort? Let us know what it's like!


Characters left 250

For terms and conditions see Readers Comments on the Cookie and privacy policy page.